Time,TemperatureF,DewpointF,PressureIn,WindDirection,WindDirectionDegrees,WindSpeedMPH,WindSpeedGustMPH,Humidity,HourlyPrecipIn,Conditions,Clouds,dailyrainin,SoftwareType,DateUTC
2013-01-17 00:09:00,39.4,16.0,30.36,NNE,25,7.0,11.0,38,0.00,,,0.00,weatherlink.com 1.10,2013-01-17 08:09:00,
2013-01-17 00:24:00,39.3,15.0,30.36,NNW,335,8.0,14.0,38,0.00,,,0.00,weatherlink.com 1.10,2013-01-17 08:24:00,
2013-01-17 00:39:00,39.3,15.0,30.36,NNW,347,9.0,16.0,38,0.00,,,0.00,weatherlink.com 1.10,2013-01-17 08:39:00,
2013-01-17 00:54:00,39.5,15.0,30.35,NNW,345,12.0,17.0,37,0.00,,,0.00,weatherlink.com 1.10,2013-01-17 08:54:00,
2013-01-17 01:09:00,39.8,15.0,30.36,NNW,330,11.0,20.0,37,0.00,,,0.00,weatherlink.com 1.10,2013-01-17 09:09:00,
2013-01-17 01:25:00,40.0,15.0,30.36,NNW,333,9.0,16.0,36,0.00,,,0.00,weatherlink.com 1.10,2013-01-17 09:25:00,
2013-01-17 01:39:00,40.3,15.0,30.36,NNW,345,8.0,16.0,36,0.00,,,0.00,weatherlink.com 1.10,2013-01-17 09:39:00,
2013-01-17 01:54:00,39.9,15.0,30.36,NNW,330,11.0,16.0,36,0.00,,,0.00,weatherlink.com 1.10,2013-01-17 09:54:00,
2013-01-17 02:09:00,40.0,15.0,30.36,North,355,13.0,16.0,36,0.00,,,0.00,weatherlink.com 1.10,2013-01-17 10:09:00,
2013-01-17 02:24:00,41.3,15.0,30.36,North,6,11.0,18.0,35,0.00,,,0.00,weatherlink.com 1.10,2013-01-17 10:24:00,
2013-01-17 02:39:00,41.3,15.0,30.36,NNW,337,13.0,18.0,34,0.00,,,0.00,weatherlink.com 1.10,2013-01-17 10:39:00,
2013-01-17 02:54:00,40.7,15.0,30.36,NW,325,8.0,15.0,35,0.00,,,0.00,weatherlink.com 1.10,2013-01-17 10:54:00,
2013-01-17 03:09:00,40.9,15.0,30.36,NNE,23,7.0,13.0,35,0.00,,,0.00,weatherlink.com 1.10,2013-01-17 11:09:00,
2013-01-17 03:24:00,41.0,15.0,30.36,NNW,337,8.0,14.0,35,0.00,,,0.00,weatherlink.com 1.10,2013-01-17 11:24:00,
2013-01-17 03:39:00,40.5,15.0,30.36,North,354,11.0,14.0,35,0.00,,,0.00,weatherlink.com 1.10,2013-01-17 11:39:00,
2013-01-17 03:54:00,40.5,15.0,30.36,NNW,336,9.0,14.0,35,0.00,,,0.00,weatherlink.com 1.10,2013-01-17 11:54:00,
2013-01-17 04:09:00,40.7,15.0,30.36,NNW,338,8.0,16.0,35,0.00,,,0.00,weatherlink.com 1.10,2013-01-17 12:09:00,
2013-01-17 04:25:00,40.3,15.0,30.36,NW,322,9.0,13.0,36,0.00,,,0.00,weatherlink.com 1.10,2013-01-17 12:25:00,
2013-01-17 04:40:00,40.4,15.0,30.35,North,350,11.0,14.0,35,0.00,,,0.00,weatherlink.com 1.10,2013-01-17 12:40:00,
2013-01-17 04:55:00,40.1,15.0,30.35,NNW,335,8.0,17.0,36,0.00,,,0.00,weatherlink.com 1.10,2013-01-17 12:55:00,
2013-01-17 05:11:00,39.6,15.0,30.35,North,349,10.0,14.0,36,0.00,,,0.00,weatherlink.com 1.10,2013-01-17 13:11:00,
2013-01-17 05:25:00,39.0,15.0,30.35,NW,325,11.0,16.0,37,0.00,,,0.00,weatherlink.com 1.10,2013-01-17 13:25:00,
2013-01-17 05:40:00,39.0,15.0,30.35,NNW,338,13.0,15.0,37,0.00,,,0.00,weatherlink.com 1.10,2013-01-17 13:40:00,
2013-01-17 05:55:00,38.4,15.0,30.35,NNW,338,12.0,15.0,38,0.00,,,0.00,weatherlink.com 1.10,2013-01-17 13:55:00,
2013-01-17 06:10:00,38.2,14.0,30.35,NNW,346,12.0,15.0,38,0.00,,,0.00,weatherlink.com 1.10,2013-01-17 14:10:00,
2013-01-17 06:25:00,38.0,14.0,30.36,NNW,340,12.0,14.0,38,0.00,,,0.00,weatherlink.com 1.10,2013-01-17 14:25:00,
2013-01-17 06:40:00,37.3,14.0,30.36,NNW,331,8.0,17.0,39,0.00,,,0.00,weatherlink.com 1.10,2013-01-17 14:40:00,
2013-01-17 06:55:00,37.3,15.0,30.36,NNW,335,12.0,15.0,40,0.00,,,0.00,weatherlink.com 1.10,2013-01-17 14:55:00,
2013-01-17 07:10:00,38.2,14.0,30.36,NNW,330,8.0,16.0,38,0.00,,,0.00,weatherlink.com 1.10,2013-01-17 15:10:00,
2013-01-17 07:25:00,38.2,14.0,30.37,NNW,328,7.0,18.0,38,0.00,,,0.00,weatherlink.com 1.10,2013-01-17 15:25:00,
2013-01-17 07:40:00,39.2,15.0,30.37,NNW,345,9.0,17.0,37,0.00,,,0.00,weatherlink.com 1.10,2013-01-17 15:40:00,
2013-01-17 07:55:00,39.2,15.0,30.38,NNW,333,8.0,16.0,37,0.00,,,0.00,weatherlink.com 1.10,2013-01-17 15:55:00,
2013-01-17 08:10:00,39.3,15.0,30.38,NNW,328,9.0,18.0,37,0.00,,,0.00,weatherlink.com 1.10,2013-01-17 16:10:00,
2013-01-17 08:25:00,39.7,15.0,30.39,North,353,12.0,14.0,36,0.00,,,0.00,weatherlink.com 1.10,2013-01-17 16:25:00,
2013-01-17 08:40:00,40.4,15.0,30.39,North,355,10.0,17.0,36,0.00,,,0.00,weatherlink.com 1.10,2013-01-17 16:40:00,
2013-01-17 08:55:00,41.5,16.0,30.40,North,352,6.0,19.0,35,0.00,,,0.00,weatherlink.com 1.10,2013-01-17 16:55:00,
2013-01-17 09:10:00,42.5,16.0,30.40,North,353,6.0,14.0,34,0.00,,,0.00,weatherlink.com 1.10,2013-01-17 17:10:00,
2013-01-17 09:25:00,43.7,16.0,30.41,NNW,334,10.0,15.0,33,0.00,,,0.00,weatherlink.com 1.10,2013-01-17 17:25:00,
2013-01-17 09:40:00,44.6,16.0,30.41,NNW,345,9.0,15.0,32,0.00,,,0.00,weatherlink.com 1.10,2013-01-17 17:40:00,
2013-01-17 09:55:00,45.4,15.0,30.40,NW,307,11.0,14.0,30,0.00,,,0.00,weatherlink.com 1.10,2013-01-17 17:55:00,
2013-01-17 10:10:00,46.3,15.0,30.39,NNW,345,12.0,21.0,29,0.00,,,0.00,weatherlink.com 1.10,2013-01-17 18:10:00,
2013-01-17 10:25:00,46.9,15.0,30.38,NNW,330,13.0,22.0,28,0.00,,,0.00,weatherlink.com 1.10,2013-01-17 18:25:00,
2013-01-17 10:40:00,47.9,15.0,30.38,North,352,9.0,18.0,27,0.00,,,0.00,weatherlink.com 1.10,2013-01-17 18:40:00,
2013-01-17 10:55:00,48.8,15.0,30.36,NNW,340,14.0,22.0,26,0.00,,,0.00,weatherlink.com 1.10,2013-01-17 18:55:00,
2013-01-17 11:10:00,49.6,16.0,30.36,North,354,7.0,17.0,26,0.00,,,0.00,weatherlink.com 1.10,2013-01-17 19:10:00,
2013-01-17 11:26:00,50.3,16.0,30.35,NE,41,5.0,14.0,25,0.00,,,0.00,weatherlink.com 1.10,2013-01-17 19:26:00,
2013-01-17 11:41:00,50.7,16.0,30.34,NNW,342,10.0,17.0,25,0.00,,,0.00,weatherlink.com 1.10,2013-01-17 19:41:00,
2013-01-17 11:56:00,51.1,15.0,30.34,WNW,302,9.0,14.0,24,0.00,,,0.00,weatherlink.com 1.10,2013-01-17 19:56:00,
2013-01-17 12:11:00,51.6,16.0,30.33,NW,312,6.0,18.0,24,0.00,,,0.00,weatherlink.com 1.10,2013-01-17 20:11:00,
2013-01-17 12:26:00,52.5,15.0,30.32,ENE,74,8.0,14.0,23,0.00,,,0.00,weatherlink.com 1.10,2013-01-17 20:26:00,
2013-01-17 12:41:00,53.0,14.0,30.31,ENE,57,8.0,19.0,21,0.00,,,0.00,weatherlink.com 1.10,2013-01-17 20:41:00,
2013-01-17 12:56:00,53.7,14.0,30.30,NW,309,8.0,16.0,21,0.00,,,0.00,weatherlink.com 1.10,2013-01-17 20:56:00,
2013-01-17 13:11:00,54.3,14.0,30.30,NW,308,5.0,16.0,20,0.00,,,0.00,weatherlink.com 1.10,2013-01-17 21:11:00,
2013-01-17 13:26:00,54.8,13.0,30.29,NW,318,7.0,20.0,19,0.00,,,0.00,weatherlink.com 1.10,2013-01-17 21:26:00,
2013-01-17 13:41:00,55.0,12.0,30.29,WNW,295,10.0,19.0,18,0.00,,,0.00,weatherlink.com 1.10,2013-01-17 21:41:00,
2013-01-17 13:56:00,54.8,13.0,30.28,NW,318,9.0,19.0,19,0.00,,,0.00,weatherlink.com 1.10,2013-01-17 21:56:00,
2013-01-17 14:11:00,55.0,13.0,30.27,North,353,4.0,16.0,19,0.00,,,0.00,weatherlink.com 1.10,2013-01-17 22:11:00,
2013-01-17 14:26:00,55.2,13.0,30.27,NNW,338,7.0,15.0,19,0.00,,,0.00,weatherlink.com 1.10,2013-01-17 22:26:00,
2013-01-17 14:41:00,55.4,14.0,30.27,NW,312,6.0,13.0,19,0.00,,,0.00,weatherlink.com 1.10,2013-01-17 22:41:00,
2013-01-17 14:56:00,55.5,14.0,30.27,NW,314,5.0,16.0,19,0.00,,,0.00,weatherlink.com 1.10,2013-01-17 22:56:00,
2013-01-17 15:11:00,55.9,13.0,30.27,NNW,337,10.0,15.0,18,0.00,,,0.00,weatherlink.com 1.10,2013-01-17 23:11:00,
2013-01-17 15:26:00,55.8,11.0,30.27,NW,308,7.0,14.0,17,0.00,,,0.00,weatherlink.com 1.10,2013-01-17 23:26:00,
2013-01-17 15:41:00,55.7,13.0,30.27,NW,307,8.0,12.0,18,0.00,,,0.00,weatherlink.com 1.10,2013-01-17 23:41:00,
2013-01-17 15:56:00,55.5,12.0,30.27,NNE,30,10.0,11.0,18,0.00,,,0.00,weatherlink.com 1.10,2013-01-17 23:56:00,
2013-01-17 16:11:00,54.8,12.0,30.27,North,8,12.0,12.0,18,0.00,,,0.00,weatherlink.com 1.10,2013-01-18 00:11:00,
2013-01-17 16:26:00,53.9,11.0,30.28,NW,325,6.0,10.0,18,0.00,,,0.00,weatherlink.com 1.10,2013-01-18 00:26:00,
2013-01-17 16:41:00,53.1,12.0,30.28,NW,321,6.0,14.0,19,0.00,,,0.00,weatherlink.com 1.10,2013-01-18 00:41:00,
2013-01-17 16:56:00,52.2,11.0,30.28,WNW,295,8.0,11.0,19,0.00,,,0.00,weatherlink.com 1.10,2013-01-18 00:56:00,
2013-01-17 17:11:00,51.0,11.0,30.28,NNW,332,7.0,12.0,20,0.00,,,0.00,weatherlink.com 1.10,2013-01-18 01:11:00,
2013-01-17 17:26:00,50.3,10.0,30.29,NNW,337,10.0,14.0,20,0.00,,,0.00,weatherlink.com 1.10,2013-01-18 01:26:00,
2013-01-17 17:41:00,49.7,11.0,30.29,NNW,328,7.0,11.0,21,0.00,,,0.00,weatherlink.com 1.10,2013-01-18 01:41:00,
2013-01-17 17:56:00,48.8,11.0,30.29,NNW,328,6.0,11.0,22,0.00,,,0.00,weatherlink.com 1.10,2013-01-18 01:56:00,
2013-01-17 18:11:00,48.5,10.0,30.29,NNW,339,6.0,11.0,21,0.00,,,0.00,weatherlink.com 1.10,2013-01-18 02:11:00,
2013-01-17 18:26:00,48.2,11.0,30.30,NNW,334,7.0,10.0,22,0.00,,,0.00,weatherlink.com 1.10,2013-01-18 02:26:00,
2013-01-17 18:41:00,47.7,10.0,30.30,NNW,348,7.0,10.0,22,0.00,,,0.00,weatherlink.com 1.10,2013-01-18 02:41:00,
2013-01-17 18:56:00,47.4,10.0,30.30,NW,321,7.0,9.0,22,0.00,,,0.00,weatherlink.com 1.10,2013-01-18 02:56:00,
2013-01-17 19:11:00,47.3,10.0,30.30,North,6,6.0,11.0,22,0.00,,,0.00,weatherlink.com 1.10,2013-01-18 03:11:00,
2013-01-17 19:26:00,47.3,10.0,30.30,NW,308,9.0,11.0,22,0.00,,,0.00,weatherlink.com 1.10,2013-01-18 03:26:00,
2013-01-17 19:41:00,47.3,10.0,30.30,NNW,345,6.0,11.0,22,0.00,,,0.00,weatherlink.com 1.10,2013-01-18 03:41:00,
2013-01-17 19:56:00,46.7,10.0,30.30,North,354,10.0,12.0,22,0.00,,,0.00,weatherlink.com 1.10,2013-01-18 03:56:00,
2013-01-17 20:11:00,46.7,10.0,30.30,NNW,335,5.0,11.0,22,0.00,,,0.00,weatherlink.com 1.10,2013-01-18 04:11:00,
2013-01-17 20:26:00,46.2,9.0,30.30,NW,322,7.0,12.0,22,0.00,,,0.00,weatherlink.com 1.10,2013-01-18 04:26:00,
2013-01-17 20:41:00,45.9,9.0,30.30,NW,323,8.0,14.0,22,0.00,,,0.00,weatherlink.com 1.10,2013-01-18 04:41:00,
2013-01-17 20:56:00,46.0,9.0,30.30,NNW,343,8.0,14.0,22,0.00,,,0.00,weatherlink.com 1.10,2013-01-18 04:56:00,
2013-01-17 21:11:00,46.0,9.0,30.30,NNW,330,11.0,16.0,22,0.00,,,0.00,weatherlink.com 1.10,2013-01-18 05:11:00,
2013-01-17 21:26:00,46.0,9.0,30.30,WNW,291,10.0,12.0,22,0.00,,,0.00,weatherlink.com 1.10,2013-01-18 05:26:00,
2013-01-17 21:41:00,46.1,9.0,30.30,NNW,339,7.0,14.0,22,0.00,,,0.00,weatherlink.com 1.10,2013-01-18 05:41:00,
2013-01-17 21:56:00,45.8,9.0,30.30,North,352,12.0,14.0,22,0.00,,,0.00,weatherlink.com 1.10,2013-01-18 05:56:00,
2013-01-17 22:11:00,45.0,8.0,30.29,NNW,345,13.0,14.0,22,0.00,,,0.00,weatherlink.com 1.10,2013-01-18 06:11:00,
2013-01-17 22:26:00,44.2,8.0,30.29,NW,326,10.0,13.0,23,0.00,,,0.00,weatherlink.com 1.10,2013-01-18 06:26:00,
2013-01-17 22:42:00,43.7,9.0,30.29,NNW,331,7.0,12.0,24,0.00,,,0.00,weatherlink.com 1.10,2013-01-18 06:42:00,
2013-01-17 22:56:00,44.3,8.0,30.29,NNW,339,8.0,12.0,23,0.00,,,0.00,weatherlink.com 1.10,2013-01-18 06:56:00,
2013-01-17 23:11:00,44.3,8.0,30.30,NW,321,8.0,12.0,23,0.00,,,0.00,weatherlink.com 1.10,2013-01-18 07:11:00,
2013-01-17 23:26:00,44.6,9.0,30.30,NNW,328,10.0,12.0,23,0.00,,,0.00,weatherlink.com 1.10,2013-01-18 07:26:00,
2013-01-17 23:41:00,44.8,9.0,30.30,NNW,335,10.0,13.0,23,0.00,,,0.00,weatherlink.com 1.10,2013-01-18 07:41:00,
2013-01-17 23:56:00,44.5,9.0,30.30,North,1,12.0,12.0,23,0.00,,,0.00,weatherlink.com 1.10,2013-01-18 07:56:00,